Regional Weather Roundup
Issued by NWS Cleveland, OH

Home | Current Version | Previous Version | Graphics & Text | Print | Product List | Glossary On
Versions: 1 2 3 4 5 6 7 8 9 10 11 12 13 14 15 16 17 18 19 20 21 22 23 24 25 26 27 28 29 30 31 32 33 34 35 36 37 38 39 40 41 42 43 44 45 46 47 48 49 50
000
ASUS41 KCLE 250710
RWRCLE
OHIO REGIONAL WEATHER ROUNDUP
NATIONAL WEATHER SERVICE WILMINGTON, OH
300 AM EDT FRI JUL 25 2014

NOTE: "FAIR" INDICATES FEW OR NO CLOUDS BELOW 12,000 FEET WITH NO
SIGNIFICANT WEATHER AND/OR OBSTRUCTIONS TO VISIBILITY.

OHZ001>008-015>018-024>027-034-035-043-044-250800-
   NORTHWEST OHIO

CITY           SKY/WX    TMP DP  RH WIND       PRES   REMARKS
DEFIANCE       CLEAR     54  51  90 CALM      30.06F
FINDLAY        CLEAR     53  51  93 CALM      30.06F
TOLEDO EXPRESS CLEAR     52  51  97 CALM      30.05F
TOLEDO METCALF CLEAR     56  50  80 CALM      30.06F
LIMA           CLEAR     57  50  77 SE3       30.07F
$$

OHZ009>014-019>023-028>033-038-089-250800-
   NORTHEAST OHIO

CITY           SKY/WX    TMP DP  RH WIND       PRES   REMARKS
CLE-HOPKINS    CLEAR     53  50  89 CALM      30.08F
CLE-LAKEFRONT  CLEAR     60  52  74 S5        30.05S
CUY CO. ARPT   NOT AVBL
LORAIN-ELYRIA  CLEAR     54  50  86 W3        30.07F
ASHTABULA      CLEAR     50  47  89 CALM      30.07S
AKRON-CANTON   CLEAR     55  49  80 CALM      30.08S
WOOSTER        CLEAR     48  46  93 CALM      30.08F
MANSFIELD      CLEAR     51  50  96 CALM      30.08F
YOUNGSTOWN     CLEAR     50  49  96 CALM      30.07S
$$

OHZ042-051>053-060>062-070>072-077>081-250800-
  SOUTHWEST OHIO

CITY           SKY/WX    TMP DP  RH WIND       PRES   REMARKS
CINC-COVINGTON CLEAR     61  50  67 E6        30.06F
CINC-LUNKEN    CLEAR     56  55  97 CALM      30.07S
HAMILTON       CLEAR     55  53  93 CALM      30.08R
DAYTON         CLEAR     59  50  72 E6        30.08F
WRIGHT-PAT AFB CLEAR     57  52  84 CALM      30.07F
DAYTON GENERAL CLEAR     58  51  78 E5        30.06F
WILMINGTON     CLEAR     57  49  74 E7        30.07F
$$

OHZ036-037-039>041-045>050-054>059-063>069-073>076-082>088-250800-
  CENTRAL AND SOUTHEAST OHIO

CITY           SKY/WX    TMP DP  RH WIND       PRES   REMARKS
COLUMBUS       CLEAR     59  51  75 CALM      30.07S
OSU AIRPORT    CLEAR     54  50  86 CALM      30.07F
BOLTON FIELD   CLEAR     51  51  97 CALM      30.08S
RICKENBACK AFB CLEAR     58  49  70 CALM      30.07S
NEWARK         CLEAR     53  50  89 CALM      30.07S
MARION         CLEAR     53  50  89 CALM      30.08S
LANCASTER      CLEAR     53  51  93 CALM      30.07F
ZANESVILLE     CLEAR     54  51  90 CALM      30.07F
NEW PHILLY     CLEAR     51  50  96 CALM      30.08F FOG
$$


USA.gov is the U.S. government's official web portal to all federal, state and local government web resources and services.